Weather reports worldwide

Advertisment
Blencathra, United Kingdom (99143): temperature & dewpoint: 21.05.2018 08:00:00 - 27.05.2018 08:00:00 (BST)Blencathra, United Kingdom (99143): precipitation: 21.05.2018 08:00:00 - 27.05.2018 08:00:00 (BST)
Date & Time tt [°C] td [°C] rr [mm]
27.05.2018 08:00:00 16,6 9,7 0,0
27.05.2018 07:00:00 15,1 9,0 0,0
27.05.2018 06:00:00 13,8 7,4 0,0
27.05.2018 05:00:00 13,1 6,2 0,0
27.05.2018 04:00:00 12,4 5,0 0,0
27.05.2018 03:00:00 12,2 6,3 0,0
27.05.2018 02:00:00 12,1 7,6 0,0
27.05.2018 01:00:00 12,6 7,7 0,0
27.05.2018 00:00:00 13,7 7,7 0,0
26.05.2018 23:00:00 12,2 7,9 0,0
26.05.2018 22:00:00 13,6 7,6 0,0
26.05.2018 21:00:00 18,1 5,5 0,0
26.05.2018 20:00:00 18,4 5,5 0,0
26.05.2018 19:00:00 19,2 5,9 0,0
26.05.2018 18:00:00 20,3 6,7 0,0
26.05.2018 17:00:00 19,7 8,4 0,0
26.05.2018 16:00:00 19,7 8,4 0,0
26.05.2018 15:00:00 20,1 9,6 0,0
26.05.2018 14:00:00 21,3 8,7 0,0
26.05.2018 13:00:00 20,4 9,8 0,0
26.05.2018 12:00:00 20,0 11,9 0,0
26.05.2018 11:00:00 18,9 10,9 0,0
26.05.2018 10:00:00 17,3 9,6 0,0
26.05.2018 09:00:00 15,9 8,3 0,0
26.05.2018 08:00:00 15,4 8,0 0,0
26.05.2018 07:00:00 14,7 8,3 0,0
26.05.2018 06:00:00 11,6 9,9 0,0
26.05.2018 05:00:00 10,8 9,5 0,0
26.05.2018 04:00:00 11,4 9,1 0,0
26.05.2018 03:00:00 13,4 10,6 0,0
26.05.2018 02:00:00 13,7 10,5 0,0
26.05.2018 01:00:00 13,2 9,7 0,0
26.05.2018 00:00:00 14,1 9,9 0,0
25.05.2018 23:00:00 13,8 9,8 0,0
25.05.2018 22:00:00 13,0 10,6 0,0
25.05.2018 21:00:00 14,7 10,8 0,0
25.05.2018 20:00:00 14,2 11,6 0,2
25.05.2018 19:00:00 14,3 11,0 0,2
25.05.2018 18:00:00 14,0 10,7 0,6
25.05.2018 17:00:00 14,4 10,0 0,4
25.05.2018 16:00:00 15,8 10,0 0,0
25.05.2018 15:00:00 18,2 7,7 0,0
25.05.2018 14:00:00 17,3 8,7 0,0
25.05.2018 13:00:00 17,0 9,3 0,0
25.05.2018 12:00:00 16,7 8,4 0,0
25.05.2018 11:00:00 16,5 7,1 0,0
25.05.2018 10:00:00 16,3 6,7 0,0
25.05.2018 09:00:00 15,5 9,0 0,0
25.05.2018 08:00:00 13,7 8,7 0,0
25.05.2018 07:00:00 12,2 7,6 0,0
25.05.2018 06:00:00 11,0 6,4 0,0
25.05.2018 05:00:00 10,7 6,0 0,0
25.05.2018 04:00:00 10,5 6,0 0,0
25.05.2018 03:00:00 10,8 6,0 0,0
25.05.2018 02:00:00 11,2 6,6 0,0
25.05.2018 01:00:00 12,9 7,3 0,0
25.05.2018 00:00:00 13,3 7,2 0,0
24.05.2018 23:00:00 13,9 7,1 0,0
24.05.2018 22:00:00 15,3 8,2 0,0
24.05.2018 21:00:00 16,2 8,3 0,0
24.05.2018 20:00:00 17,7 8,0 0,0
24.05.2018 19:00:00 19,1 8,9 0,0
24.05.2018 18:00:00 20,1 10,7 0,0
24.05.2018 17:00:00 20,6 11,2 0,0
24.05.2018 16:00:00 20,9 11,9 0,0
24.05.2018 15:00:00 20,9 11,2 0,0
24.05.2018 14:00:00 20,4 10,6 0,0
24.05.2018 13:00:00 20,2 10,0 0,0
24.05.2018 12:00:00 18,7 7,6 0,0
24.05.2018 11:00:00 17,7 7,9 0,0
24.05.2018 10:00:00 17,2 7,7 0,0
24.05.2018 09:00:00 16,3 7,4 0,0
24.05.2018 08:00:00 14,6 6,9 0,0
24.05.2018 07:00:00 11,3 6,5 0,0
24.05.2018 06:00:00 8,9 5,0 0,0
24.05.2018 05:00:00 8,1 5,1 0,0
24.05.2018 04:00:00 8,2 5,5 0,0
24.05.2018 03:00:00 7,7 5,9 0,0
24.05.2018 02:00:00 8,5 6,9 0,0
24.05.2018 01:00:00 8,7 6,7 0,0
24.05.2018 00:00:00 8,7 6,7 0,0
23.05.2018 23:00:00 10,0 7,5 0,0
23.05.2018 22:00:00 10,8 7,3 0,0
23.05.2018 21:00:00 13,5 8,1 0,0
23.05.2018 20:00:00 15,2 8,5 0,0
23.05.2018 19:00:00 16,8 7,8 0,0
23.05.2018 18:00:00 17,2 6,8 0,0
23.05.2018 17:00:00 17,7 8,6 0,0
23.05.2018 16:00:00 17,7 7,9 0,0
23.05.2018 15:00:00 17,6 9,0 0,0
23.05.2018 14:00:00 17,0 9,4 0,0
23.05.2018 13:00:00 16,2 8,6 0,0
23.05.2018 12:00:00 15,5 10,2 0,0
23.05.2018 11:00:00 13,8 8,9 0,0
23.05.2018 10:00:00 12,6 8,3 0,0
23.05.2018 09:00:00 10,9 7,8 0,0
23.05.2018 08:00:00 9,3 6,9 0,0
23.05.2018 07:00:00 7,5 5,7 0,0
23.05.2018 06:00:00 5,9 4,1 0,0
23.05.2018 05:00:00 5,5 4,5 0,0
23.05.2018 04:00:00 6,5 5,0 0,0
23.05.2018 03:00:00 6,2 4,4 0,0
23.05.2018 02:00:00 6,2 5,1 0,0
23.05.2018 01:00:00 5,9 5,0 0,0
23.05.2018 00:00:00 6,7 5,2 0,0
22.05.2018 23:00:00 7,9 5,8 0,0
22.05.2018 22:00:00 8,7 6,7 0,0
22.05.2018 21:00:00 10,5 7,1 0,0
22.05.2018 20:00:00 12,0 7,6 0,0
22.05.2018 19:00:00 13,8 8,5 0,0
22.05.2018 18:00:00 15,4 8,6 0,0
22.05.2018 17:00:00 15,9 8,3 0,0
22.05.2018 16:00:00 15,7 9,0 0,0
22.05.2018 15:00:00 15,3 9,5 0,0
22.05.2018 14:00:00 14,3 8,9 0,0
22.05.2018 13:00:00 12,8 8,7 0,0
22.05.2018 12:00:00 12,5 8,6 0,0
22.05.2018 11:00:00 12,0 8,3 0,0
22.05.2018 10:00:00 11,1 8,0 0,0
22.05.2018 09:00:00 9,8 6,9 0,0
22.05.2018 08:00:00 8,5 6,8 0,0
22.05.2018 07:00:00 8,3 6,5 0,0
22.05.2018 06:00:00 8,5 6,7 0,0
22.05.2018 05:00:00 9,5 7,3 0,0
22.05.2018 04:00:00 9,8 7,4 0,0
22.05.2018 03:00:00 11,2 8,8 0,0
22.05.2018 02:00:00 10,9 8,6 0,0
22.05.2018 01:00:00 10,7 8,9 0,0
22.05.2018 00:00:00 11,1 8,8 0,0
21.05.2018 23:00:00 12,6 9,6 0,0
21.05.2018 22:00:00 13,2 9,0 0,0
21.05.2018 21:00:00 13,6 8,6 0,0
21.05.2018 20:00:00 15,2 7,8 0,0
21.05.2018 19:00:00 16,2 8,0 0,0
21.05.2018 18:00:00 16,6 6,8 0,0
21.05.2018 17:00:00 17,8 9,4 0,0
21.05.2018 16:00:00 19,2 12,3 0,0
21.05.2018 15:00:00 18,8 9,8 0,0
21.05.2018 14:00:00 19,3 9,9 0,0
21.05.2018 13:00:00 18,6 10,0 0,0
21.05.2018 12:00:00 18,8 11,0 0,0
21.05.2018 11:00:00 17,8 9,5 0,0
21.05.2018 10:00:00 17,5 10,0 0,0
21.05.2018 09:00:00 15,0 9,1 0,0
21.05.2018 08:00:00 13,9 8,0 0,0

tt = temperature
td = dewpoint
rr = precipitation

Next stations